This is the latest recevied weather packets stored in our database for station/object N4CRH-13. If no packets are shown the sender has not sent any weather packets the latest 10 day(s).
| Time | Temp. | Humidity | Pressure | Rain* | Wind** | Luminosity | Snow |
|---|---|---|---|---|---|---|---|
| 1777396570 | 10° C | 62% | 1292.9 hPa | 0 mm | - | 746 W/m² | - |
| 1777396268 | 8.89° C | 64% | 1293.4 hPa | 0 mm | - | 143 W/m² | - |
| 1777395964 | 10° C | 68% | 1293.1 hPa | 0 mm | - | 275 W/m² | - |
| 1777395658 | 10° C | 63% | 1293 hPa | 0 mm | - | 146 W/m² | - |
| 1777395355 | 10° C | 68% | 1293.1 hPa | 0 mm | - | 479 W/m² | - |
| 1777395053 | 8.33° C | 65% | 1293.1 hPa | 0 mm | - | 775 W/m² | - |
| 1777394749 | 9.44° C | 67% | 1293.2 hPa | 0 mm | - | 560 W/m² | - |
| 1777394445 | 9.44° C | 68% | 1293.2 hPa | 0 mm | - | 783 W/m² | - |
| 1777394142 | 9.44° C | 74% | 1293.5 hPa | 0 mm | - | 661 W/m² | - |
| 1777393838 | 8.89° C | 73% | 1293.4 hPa | 0 mm | - | 637 W/m² | - |
| 1777393537 | 7.78° C | 76% | 1293.1 hPa | 0 mm | - | 601 W/m² | - |
| 1777393233 | 7.78° C | 78% | 1293.2 hPa | 0 mm | - | 559 W/m² | - |
| 1777392930 | 7.78° C | 76% | 1293.1 hPa | 0 mm | - | 551 W/m² | - |
| 1777392630 | 7.78° C | 76% | 1293.5 hPa | 0 mm | - | 564 W/m² | - |
| 1777392327 | 7.22° C | 84% | 1293.2 hPa | 0 mm | - | 507 W/m² | - |
| 1777392027 | 6.11° C | 83% | 1293.5 hPa | 0 mm | - | 265 W/m² | - |
| 1777391722 | 6.11° C | 85% | 1293.4 hPa | 0 mm | - | 474 W/m² | - |
| 1777391419 | 6.11° C | 86% | 1293.2 hPa | 0 mm | - | 418 W/m² | - |
| 1777391115 | 6.11° C | 86% | 1293.1 hPa | 0 mm | - | 356 W/m² | - |
| 1777390811 | 5.56° C | 85% | 1293.5 hPa | 0 mm | - | 379 W/m² | - |
| 1777390508 | 5° C | 91% | 1293.4 hPa | 0 mm | - | 338 W/m² | - |
| 1777390204 | 4.44° C | 97% | 1293.4 hPa | 0 mm | - | 298 W/m² | - |
| 1777389901 | 4.44° C | 98% | 1293.2 hPa | 0 mm | - | 269 W/m² | - |
| 1777389598 | 5° C | 99% | 1293.4 hPa | 0 mm | - | 258 W/m² | - |
| 1777389294 | 3.89° C | 99% | 1293.4 hPa | 0 mm | - | 233 W/m² | - |
* Rain latest hour (hover to see other rain measurements)
** Current wind speed in m/s (hover to see current wind gust speed)